Georgetown, SC

3:40 PM EST on November 22, 2017 (GMT -0500)
Georgetown County

Weather History for KGGE - November, 2012

Change the Weather History Date:

Tuesday, November 6, 2012

  Actual Average Record
Temperature  
Mean Temperature 45 °F -  
Max Temperature 51 °F 70 °F 78 °F (2014)
Min Temperature 37 °F 46 °F 37 °F (2010)
Degree Days  
Heating Degree Days 20    
Moisture  
Dew Point 42 °F    
Average Humidity 91    
Maximum Humidity 100    
Minimum Humidity 76    
Precipitation  
Precipitation 0.12 in - - ()
Sea Level Pressure  
Sea Level Pressure 29.98 in    
Wind  
Wind Speed 8 mph (North)    
Max Wind Speed 14 mph    
Max Gust Speed 16 mph    
Visibility 10 miles    
Events Rain    
Averages and records for this station are not official NWS values.
T = Trace of Precipitation, MM = Missing Value Source: NWS Daily Summary

Daily Weather History Graph

Daily Weather History Graph

Search for Another Location

Airport or City:

Trip Planner

Search our weather history database for the weather conditions in past years. The results will help you decide how hot, cold, wet, or windy it might be!

Date:

Astronomy

Nov. 06, 2012 Rise Set
Actual Time 6:40 AM EST 5:20 PM EST
Civil Twilight 6:14 AM EST 5:46 PM EST
Nautical Twilight 5:45 AM EST 6:16 PM EST
Astronomical Twilight 5:16 AM EST 6:45 PM EST
Moon 11:54 PM EST (11/6) 12:34 PM EST (11/6)
Length of Visible Light 11h 31m
Length of Day
10h 40m
Waning Gibbous, 53% of the Moon is Illuminated
Nov 6
Waning Gibbous
Nov 6
Last Quarter
Nov 13
New
Nov 20
First Quarter
Nov 28
Full

Hourly Weather History & Observations

Time (EST) Temp. Windchill Dew Point Humidity Pressure Visibility Wind Dir Wind Speed Gust Speed Precip Events Conditions
12:15 AM 46.4 °F 42.9 °F 44.6 °F 93% 30.06 in 10.0 mi NNE 6.9 mph - N/A   Clear
12:35 AM 46.4 °F 42.9 °F 44.6 °F 93% 30.06 in 10.0 mi NNE 6.9 mph - N/A   Clear
12:55 AM 46.4 °F 43.5 °F 44.6 °F 93% 30.05 in 10.0 mi NNE 5.8 mph - N/A   Clear
1:15 AM 46.4 °F 42.9 °F 44.6 °F 93% 30.05 in 10.0 mi NNE 6.9 mph - N/A   Clear
1:35 AM 46.4 °F 42.4 °F 42.8 °F 87% 30.04 in 10.0 mi NNE 8.1 mph - N/A   Clear
1:55 AM 44.6 °F 40.2 °F 42.8 °F 93% 30.04 in 10.0 mi NNE 8.1 mph - N/A   Clear
2:15 AM 44.6 °F 40.7 °F 42.8 °F 93% 30.04 in 10.0 mi NNE 6.9 mph - N/A   Clear
2:35 AM 44.6 °F 40.7 °F 42.8 °F 93% 30.04 in 10.0 mi NNE 6.9 mph - N/A   Clear
2:55 AM 44.6 °F 40.2 °F 42.8 °F 93% 30.02 in 10.0 mi NNE 8.1 mph - N/A   Clear
3:35 AM 44.6 °F 40.7 °F 42.8 °F 93% 30.03 in 10.0 mi NNE 6.9 mph - N/A   Clear
4:15 AM 44.6 °F 40.2 °F 42.8 °F 93% 30.02 in 10.0 mi NE 8.1 mph - N/A   Clear
4:35 AM 44.6 °F 39.2 °F 42.8 °F 93% 30.01 in 10.0 mi NNE 10.4 mph - 0.01 in   Clear
4:55 AM 44.6 °F 39.7 °F 42.8 °F 93% 30.01 in 10.0 mi NNE 9.2 mph - 0.01 in   Clear
5:15 AM 44.6 °F 38.8 °F 42.8 °F 93% 30.00 in 10.0 mi NNE 11.5 mph - N/A   Clear
5:35 AM 44.6 °F 39.7 °F 42.8 °F 93% 30.03 in 10.0 mi NNE 9.2 mph - N/A   Scattered Clouds
5:55 AM 44.6 °F 39.7 °F 42.8 °F 93% 30.03 in 10.0 mi NNE 9.2 mph - N/A   Mostly Cloudy
6:15 AM 44.6 °F 40.2 °F 41.0 °F 87% 30.03 in 10.0 mi NNE 8.1 mph - 0.01 in   Overcast
6:35 AM 44.6 °F 40.2 °F 41.0 °F 87% 30.04 in 10.0 mi North 8.1 mph - 0.01 in   Overcast
6:55 AM 44.6 °F 38.8 °F 37.4 °F 76% 30.03 in 10.0 mi NNE 11.5 mph 16.1 mph 0.01 in   Mostly Cloudy
7:15 AM 44.6 °F 39.2 °F 37.4 °F 76% 30.03 in 10.0 mi NNE 10.4 mph - N/A   Scattered Clouds
7:35 AM 44.6 °F 41.4 °F 37.4 °F 76% 30.05 in 10.0 mi North 5.8 mph - N/A   Mostly Cloudy
7:55 AM 44.6 °F 40.2 °F 37.4 °F 76% 30.04 in 10.0 mi NNE 8.1 mph - N/A   Overcast
8:15 AM 44.6 °F 40.2 °F 37.4 °F 76% 30.04 in 10.0 mi NNE 8.1 mph - N/A Rain Light Rain
8:35 AM 42.8 °F 39.3 °F 39.2 °F 87% 30.05 in 10.0 mi North 5.8 mph - 0.01 in Rain Light Rain
8:55 AM 42.8 °F 38.6 °F 41.0 °F 93% 30.05 in 10.0 mi North 6.9 mph - 0.01 in Rain Light Rain
9:15 AM 42.8 °F 37.5 °F 42.8 °F 100% 30.03 in 10.0 mi North 9.2 mph - N/A Rain Light Rain
9:35 AM 42.8 °F 37.0 °F 42.8 °F 100% 30.01 in 10.0 mi NE 10.4 mph - N/A Rain Light Rain
9:55 AM 42.8 °F 37.5 °F 42.8 °F 100% 30.01 in 10.0 mi NNE 9.2 mph - N/A Rain Rain
10:15 AM 42.8 °F 37.5 °F 42.8 °F 100% 29.99 in 10.0 mi NNE 9.2 mph - 0.01 in   Drizzle
10:35 AM 44.6 °F 39.7 °F 44.6 °F 100% 29.98 in 10.0 mi NE 9.2 mph - 0.01 in Rain Light Rain
10:55 AM 44.6 °F 40.7 °F 44.6 °F 100% 30.02 in 10.0 mi NNW 6.9 mph - 0.01 in   Light Drizzle
11:15 AM 44.6 °F 42.2 °F 44.6 °F 100% 30.01 in 7.0 mi NW 4.6 mph - N/A   Overcast
11:35 AM 44.6 °F 40.2 °F 44.6 °F 100% 29.99 in 10.0 mi NNW 8.1 mph - N/A   Overcast
11:55 AM 44.6 °F 40.7 °F 44.6 °F 100% 29.98 in 10.0 mi North 6.9 mph - N/A   Overcast
12:15 PM 44.6 °F 40.7 °F 44.6 °F 100% 29.97 in 10.0 mi North 6.9 mph - 0.01 in   Overcast
12:35 PM 44.6 °F 39.2 °F 44.6 °F 100% 29.95 in 10.0 mi North 10.4 mph - 0.01 in   Overcast
12:55 PM 46.4 °F 41.9 °F 46.4 °F 100% 29.94 in 10.0 mi North 9.2 mph - 0.01 in   Overcast
1:15 PM 48.2 °F - 46.4 °F 93% 29.93 in 10.0 mi North 13.8 mph - N/A   Mostly Cloudy
1:35 PM 48.2 °F - 44.6 °F 87% 29.93 in 10.0 mi North 12.7 mph - 0.01 in   Overcast
1:55 PM 50.0 °F - 44.6 °F 82% 29.92 in 10.0 mi North 9.2 mph - 0.01 in   Mostly Cloudy
2:15 PM 50.0 °F - 44.6 °F 82% 29.91 in 10.0 mi NNE 10.4 mph - N/A   Scattered Clouds
2:35 PM 51.8 °F - 44.6 °F 76% 29.91 in 10.0 mi North 8.1 mph - N/A   Scattered Clouds
2:55 PM 51.8 °F - 44.6 °F 76% 29.91 in 10.0 mi North 6.9 mph - N/A   Scattered Clouds
3:15 PM 50.0 °F - 44.6 °F 82% 29.91 in 10.0 mi NNE 10.4 mph - 0.01 in   Scattered Clouds
3:35 PM 50.0 °F - 42.8 °F 76% 29.92 in 10.0 mi North 8.1 mph - 0.01 in   Scattered Clouds
3:55 PM 50.0 °F - 42.8 °F 76% 29.93 in 10.0 mi North 9.2 mph - 0.01 in   Mostly Cloudy
4:15 PM 50.0 °F - 42.8 °F 76% 29.92 in 10.0 mi North 5.8 mph - N/A   Mostly Cloudy
4:35 PM 50.0 °F - 42.8 °F 76% 29.92 in 10.0 mi North 9.2 mph - 0.01 in   Mostly Cloudy
5:15 PM 48.2 °F - 42.8 °F 82% 29.90 in 10.0 mi North 10.4 mph - N/A   Clear
5:35 PM 46.4 °F 42.4 °F 42.8 °F 87% 29.92 in 10.0 mi NNW 8.1 mph - N/A   Clear
5:55 PM 46.4 °F 43.5 °F 42.8 °F 87% 29.93 in 10.0 mi NNW 5.8 mph - N/A   Scattered Clouds
6:35 PM 46.4 °F 43.5 °F 42.8 °F 87% 29.93 in 10.0 mi North 5.8 mph - 0.01 in   Mostly Cloudy
6:55 PM 44.6 °F 42.2 °F 42.8 °F 93% 29.93 in 10.0 mi North 4.6 mph - 0.01 in   Mostly Cloudy
7:15 PM 44.6 °F 42.2 °F 42.8 °F 93% 29.93 in 10.0 mi North 4.6 mph - N/A   Clear
7:35 PM 44.6 °F 42.2 °F 42.8 °F 93% 29.93 in 10.0 mi NNW 4.6 mph - N/A   Scattered Clouds
7:55 PM 44.6 °F 42.2 °F 42.8 °F 93% 29.94 in 10.0 mi NNW 4.6 mph - 0.01 in   Mostly Cloudy
8:15 PM 44.6 °F 42.2 °F 42.8 °F 93% 29.94 in 10.0 mi NNW 4.6 mph - N/A   Scattered Clouds
8:35 PM 42.8 °F 39.3 °F 41.0 °F 93% 29.94 in 10.0 mi NNW 5.8 mph - N/A   Scattered Clouds
8:55 PM 42.8 °F 38.0 °F 41.0 °F 93% 29.93 in 10.0 mi North 8.1 mph - N/A   Clear
9:15 PM 42.8 °F 38.6 °F 41.0 °F 93% 29.94 in 10.0 mi North 6.9 mph - N/A   Clear
9:35 PM 42.8 °F 38.6 °F 41.0 °F 93% 29.94 in 10.0 mi NNW 6.9 mph - N/A   Clear
9:55 PM 42.8 °F 38.0 °F 41.0 °F 93% 29.92 in 10.0 mi North 8.1 mph - 0.01 in   Clear
10:15 PM 42.8 °F 38.0 °F 41.0 °F 93% 29.91 in 10.0 mi North 8.1 mph - N/A   Clear
10:35 PM 41.0 °F 36.4 °F 41.0 °F 100% 29.91 in 10.0 mi North 6.9 mph - N/A   Clear
10:55 PM 41.0 °F 38.0 °F 41.0 °F 100% 29.90 in 10.0 mi North 4.6 mph - N/A   Clear
11:15 PM 41.0 °F - 41.0 °F 100% 29.92 in 10.0 mi Calm Calm - N/A   Clear
11:35 PM 39.2 °F 37.0 °F 39.2 °F 100% 29.92 in 10.0 mi West 3.5 mph - N/A   Clear
11:55 PM 37.4 °F - 37.4 °F 100% 29.91 in 10.0 mi Calm Calm - 0.01 in   Clear